Hebron, NE

8:31 PM CST on November 15, 2019 (GMT -0600)
Hebron Municipal

Weather History for KHJH - October, 2019

Change the Weather History Date:

Monday, October 21, 2019

  Actual Average Record
Temperature  
Mean Temperature 46 °F -  
Max Temperature 52 °F 66 °F 87 °F (1975)
Min Temperature 41 °F 38 °F 21 °F (1987)
Degree Days  
Heating Degree Days 18    
Moisture  
Dew Point 35 °F    
Average Humidity 63    
Maximum Humidity 80    
Minimum Humidity 51    
Precipitation  
Precipitation 0.00 in - - ()
Sea Level Pressure  
Sea Level Pressure 29.64 in    
Wind  
Wind Speed 14 mph (WNW)    
Max Wind Speed 28 mph    
Max Gust Speed 41 mph    
Visibility 10 miles    
Events Rain    
Averages and records for this station are not official NWS values.
T = Trace of Precipitation, MM = Missing Value Source: NWS Daily Summary

Daily Weather History Graph

Daily Weather History Graph

Search for Another Location

Airport or City:

Astronomy

Oct. 21, 2019 Rise Set
Actual Time 7:47 AM CDT 6:42 PM CDT
Civil Twilight 7:19 AM CDT 7:09 PM CDT
Nautical Twilight 6:47 AM CDT 7:41 PM CDT
Astronomical Twilight 6:16 AM CDT 8:12 PM CDT
Moon No Moon Rise 3:06 PM CDT (10/21)
Length of Visible Light 11h 50m
Length of Day
10h 54m
Waning Gibbous, 48% of the Moon is Illuminated
Oct 21
Waning Gibbous
Oct 27
New
Nov 4
First Quarter
Nov 12
Full
Nov 19
Last Quarter

Hourly Weather History & Observations

Time (CDT) Temp. Windchill Dew Point Humidity Pressure Visibility Wind Dir Wind Speed Gust Speed Precip Events Conditions
12:15 AM 49.6 °F - 34.2 °F 55% 29.53 in 10.0 mi West 5.8 mph - N/A   Clear
12:35 AM 49.1 °F - 33.6 °F 55% 29.51 in 10.0 mi WSW 9.2 mph - N/A   Clear
12:55 AM 47.8 °F - 33.8 °F 58% 29.52 in 10.0 mi West 5.8 mph - N/A   Clear
1:15 AM 47.5 °F - 34.0 °F 59% 29.52 in 10.0 mi WSW 5.8 mph - N/A   Clear
1:35 AM 46.6 °F - 34.7 °F 63% 29.51 in 10.0 mi West 9.2 mph - N/A   Clear
1:55 AM 46.4 °F 42.4 °F 34.9 °F 64% 29.52 in 10.0 mi WSW 8.1 mph - N/A   Clear
2:15 AM 45.5 °F 41.3 °F 35.4 °F 68% 29.51 in 10.0 mi WSW 8.1 mph - N/A   Clear
2:35 AM 44.8 °F 40.4 °F 35.8 °F 71% 29.51 in 10.0 mi WSW 8.1 mph - N/A   Clear
2:55 AM 44.8 °F 39.0 °F 36.0 °F 71% 29.52 in 10.0 mi West 11.5 mph - N/A   Clear
3:15 AM 44.6 °F 38.8 °F 36.1 °F 72% 29.53 in 10.0 mi West 11.5 mph 19.6 mph N/A   Clear
3:35 AM 44.4 °F 39.0 °F 36.0 °F 72% 29.52 in 10.0 mi West 10.4 mph 17.3 mph N/A   Clear
3:55 AM 43.7 °F 38.1 °F 35.6 °F 73% 29.52 in 10.0 mi West 10.4 mph - N/A   Clear
4:15 AM 43.7 °F 38.6 °F 35.6 °F 73% 29.53 in 10.0 mi West 9.2 mph - N/A   Clear
4:35 AM 43.0 °F 36.4 °F 35.1 °F 74% 29.53 in 10.0 mi West 12.7 mph 18.4 mph N/A   Clear
4:55 AM 42.8 °F 36.6 °F 35.2 °F 75% 29.54 in 10.0 mi West 11.5 mph 18.4 mph N/A   Clear
5:35 AM 42.4 °F 36.5 °F 34.2 °F 72% 29.54 in 10.0 mi West 10.4 mph 20.7 mph N/A   Scattered Clouds
5:55 AM 41.9 °F 35.4 °F 34.2 °F 74% 29.54 in 10.0 mi West 11.5 mph 17.3 mph N/A   Scattered Clouds
6:15 AM 43.5 °F 35.8 °F 34.7 °F 71% 29.52 in 10.0 mi West 17.3 mph 21.9 mph N/A   Scattered Clouds
6:35 AM 45.3 °F 38.4 °F 34.0 °F 65% 29.51 in 10.0 mi WNW 16.1 mph 28.8 mph N/A   Mostly Cloudy
6:55 AM 45.5 °F 38.3 °F 34.2 °F 65% 29.51 in 10.0 mi WNW 17.3 mph 27.6 mph N/A   Mostly Cloudy
7:15 AM 46.4 °F 39.0 °F 34.7 °F 64% 29.51 in 10.0 mi WNW 19.6 mph 31.1 mph N/A   Overcast
7:35 AM 46.8 °F - 35.2 °F 64% 29.50 in 10.0 mi West 17.3 mph 23.0 mph N/A   Overcast
7:55 AM 46.8 °F - 35.6 °F 65% 29.50 in 10.0 mi WNW 18.4 mph 32.2 mph N/A   Overcast
8:15 AM 46.6 °F - 36.5 °F 68% 29.50 in 10.0 mi WNW 15.0 mph 31.1 mph N/A   Overcast
8:35 AM 46.0 °F 39.9 °F 36.9 °F 70% 29.50 in 10.0 mi NW 13.8 mph 19.6 mph N/A   Overcast
8:55 AM 46.8 °F - 36.1 °F 67% 29.50 in 10.0 mi WNW 12.7 mph 20.7 mph N/A   Overcast
9:15 AM 47.5 °F - 34.2 °F 60% 29.51 in 10.0 mi WNW 21.9 mph 34.5 mph N/A   Overcast
9:35 AM 47.8 °F - 34.2 °F 59% 29.51 in 10.0 mi WNW 18.4 mph 33.4 mph N/A   Overcast
9:55 AM 48.6 °F - 34.5 °F 58% 29.52 in 10.0 mi WNW 21.9 mph 36.8 mph N/A   Mostly Cloudy
10:15 AM 49.1 °F - 35.2 °F 59% 29.52 in 10.0 mi WNW 24.2 mph 36.8 mph N/A   Mostly Cloudy
10:55 AM 48.0 °F - 35.6 °F 62% 29.55 in 10.0 mi NW 20.7 mph 33.4 mph N/A   Overcast
11:15 AM 44.6 °F 37.2 °F 38.7 °F 80% 29.57 in 5.0 mi WNW 17.3 mph 32.2 mph N/A Rain Light Rain
11:35 AM 45.5 °F 38.3 °F 39.2 °F 79% 29.57 in 10.0 mi WNW 17.3 mph 25.3 mph N/A   Overcast
11:55 AM 46.4 °F 39.8 °F 38.8 °F 75% 29.58 in 10.0 mi WNW 16.1 mph 26.5 mph N/A   Overcast
12:15 PM 47.8 °F - 38.8 °F 71% 29.59 in 10.0 mi WNW 19.6 mph 31.1 mph N/A   Overcast
12:35 PM 49.3 °F - 38.5 °F 66% 29.59 in 10.0 mi WNW 18.4 mph 29.9 mph N/A   Overcast
12:55 PM 51.4 °F - 38.5 °F 61% 29.59 in 10.0 mi WNW 20.7 mph 31.1 mph N/A   Overcast
1:15 PM 51.6 °F - 37.6 °F 59% 29.60 in 10.0 mi WNW 24.2 mph 32.2 mph N/A   Overcast
1:35 PM 51.1 °F - 36.7 °F 58% 29.61 in 10.0 mi WNW 24.2 mph 34.5 mph N/A   Overcast
1:55 PM 51.8 °F - 36.7 °F 56% 29.62 in 10.0 mi WNW 19.6 mph 35.7 mph N/A   Overcast
2:15 PM 51.1 °F - 36.0 °F 56% 29.63 in 10.0 mi WNW 23.0 mph 34.5 mph N/A   Overcast
2:35 PM 52.5 °F - 36.5 °F 54% 29.63 in 10.0 mi NW 24.2 mph 34.5 mph N/A   Overcast
2:55 PM 51.3 °F - 35.8 °F 55% 29.64 in 10.0 mi WNW 26.5 mph 39.1 mph N/A   Overcast
3:15 PM 50.9 °F - 35.8 °F 56% 29.65 in 10.0 mi NW 23.0 mph 33.4 mph N/A   Overcast
3:35 PM 50.9 °F - 36.0 °F 57% 29.66 in 10.0 mi NW 23.0 mph 35.7 mph N/A   Overcast
3:55 PM 51.6 °F - 36.7 °F 57% 29.66 in 10.0 mi WNW 26.5 mph 34.5 mph N/A   Overcast
4:15 PM 50.7 °F - 36.9 °F 59% 29.68 in 10.0 mi WNW 27.6 mph 33.4 mph N/A   Overcast
4:35 PM 49.5 °F - 37.4 °F 63% 29.69 in 10.0 mi NW 21.9 mph 41.4 mph N/A   Overcast
4:55 PM 49.6 °F - 37.9 °F 64% 29.71 in 10.0 mi NW 21.9 mph 29.9 mph N/A   Overcast
5:15 PM 50.2 °F - 36.5 °F 59% 29.71 in 10.0 mi NW 20.7 mph 35.7 mph N/A   Overcast
5:35 PM 50.2 °F - 36.0 °F 58% 29.73 in 10.0 mi NW 20.7 mph 35.7 mph N/A   Overcast
5:55 PM 50.0 °F - 35.6 °F 58% 29.75 in 10.0 mi NW 27.6 mph 35.7 mph N/A   Overcast
6:15 PM 49.6 °F - 35.6 °F 59% 29.76 in 10.0 mi WNW 23.0 mph 36.8 mph N/A   Overcast
6:35 PM 49.3 °F - 35.6 °F 59% 29.77 in 10.0 mi NW 21.9 mph 33.4 mph N/A   Overcast
6:55 PM 49.1 °F - 36.0 °F 61% 29.79 in 10.0 mi NW 21.9 mph 28.8 mph N/A   Overcast
7:15 PM 48.9 °F - 35.8 °F 61% 29.81 in 10.0 mi NW 21.9 mph 28.8 mph N/A   Overcast
7:35 PM 48.6 °F - 35.6 °F 61% 29.82 in 10.0 mi WNW 16.1 mph 26.5 mph N/A   Overcast
7:55 PM 47.8 °F - 35.6 °F 63% 29.83 in 10.0 mi NW 19.6 mph 25.3 mph N/A   Overcast
8:15 PM 46.8 °F - 35.4 °F 65% 29.84 in 10.0 mi NW 19.6 mph 29.9 mph N/A   Scattered Clouds
8:35 PM 47.3 °F - 33.8 °F 59% 29.85 in 10.0 mi NW 17.3 mph 27.6 mph N/A   Scattered Clouds
8:55 PM 46.4 °F 41.5 °F 33.1 °F 60% 29.85 in 10.0 mi NW 10.4 mph 20.7 mph N/A   Scattered Clouds
9:15 PM 45.9 °F 40.4 °F 33.1 °F 61% 29.87 in 10.0 mi WNW 11.5 mph 17.3 mph N/A   Clear
9:35 PM 45.1 °F 39.9 °F 32.7 °F 62% 29.87 in 10.0 mi WNW 10.4 mph 16.1 mph N/A   Clear
9:55 PM 46.6 °F - 30.0 °F 53% 29.88 in 10.0 mi NW 15.0 mph 23.0 mph N/A   Scattered Clouds
10:15 PM 46.6 °F - 29.3 °F 51% 29.88 in 10.0 mi WNW 12.7 mph 19.6 mph N/A   Scattered Clouds
10:35 PM 45.5 °F 41.3 °F 30.0 °F 55% 29.89 in 10.0 mi WNW 8.1 mph - N/A   Clear
10:55 PM 44.8 °F 39.0 °F 30.4 °F 57% 29.90 in 10.0 mi WNW 11.5 mph 17.3 mph N/A   Clear
11:15 PM 46.0 °F 40.6 °F 29.3 °F 52% 29.90 in 10.0 mi WNW 11.5 mph 20.7 mph N/A   Clear
11:35 PM 45.5 °F 39.9 °F 29.3 °F 53% 29.90 in 10.0 mi WNW 11.5 mph 17.3 mph N/A   Clear
11:55 PM 44.8 °F 39.9 °F 29.5 °F 55% 29.91 in 10.0 mi West 9.2 mph - N/A   Clear